[[{"header":{"parameterUnit":"m.s-1","parameterCategory":1,"la1":30.2991,"la2":30.254,"lo1":-89.0895,"lo2":-89.0444,"dy":0.0017,"dx":0.0017,"nx":28,"ny":28,"refTime":"2026-02-13T03:00:00:Z","depth":0,"parameterNumber":2,"parameterNumberName":"U-component_of_WINDS"},"data":[0,0,0,0,0,0,0,0,0,0,0,0,0,0,0,0,0,0,0,0,0,0,0,0,0,0,0,0,0,0,0,0,0,0,0,0,0,0,0,0,0,0,0,0,0,0,0,0,0,0,0,0,0,0,0,0,0,0,0.7277,0.7279,0,0.7406,0.7407,0.7409,0.7467,0.7467,0.7467,0.7467,0.76,0.7604,0.7607,0,0,0,0,0,0,0,0,0,0,0,0,0,0.7081,0.7085,0.7277,0.7279,0.728,0.7406,0.7407,0.7409,0.7467,0.7467,0.7467,0.7467,0.7599,0.7603,0.7608,0,0,0,0,0,0,0,0,0,0,0,0,0,0.7184,0.7086,0.7277,0.7324,0.733,0.7405,0.7407,0.741,0.7467,0.7467,0.7467,0.7467,0.7598,0.7603,0.7608,0.7647,0,0,0.7625,0.7628,0,0,0,0,0,0,0,0,0.7178,0.7191,0.7316,0.7321,0.7328,0.742,0.7387,0.7489,0.7467,0.7415,0.7467,0.7467,0.7541,0.7551,0.7575,0.7653,0.7659,0.7626,0.7629,0.7631,0.7633,0,0,0,0,0,0,0,0.7171,0.7186,0.7328,0.7318,0.7325,0.7339,0.7353,0.7407,0.7478,0.742,0.7424,0.7439,0.7544,0.757,0.7579,0.7661,0.7626,0.7631,0.7634,0.7636,0.7773,0.7773,0,0,0,0,0,0,0.7156,0.7179,0.7324,0.7332,0.7251,0.7343,0.7359,0.7391,0.7477,0.749,0.7439,0.7441,0.7561,0.7573,0.7584,0.7633,0.7631,0.7637,0.764,0.7772,0.7773,0.7773,0,0,0,0,0,0,0.7151,0.7168,0.7319,0.7257,0.7277,0.7346,0.7382,0.7393,0.742,0.7491,0.7504,0.7452,0.7561,0.7576,0.763,0.7638,0.7639,0.7644,0.7772,0.7773,0.7773,0.7731,0,0,0,0,0,0,0.7145,0.7166,0.7182,0.7257,0.728,0.7363,0.7382,0.7396,0.7429,0.7433,0.7508,0.752,0.7562,0.7621,0.7635,0.7646,0.7648,0.7772,0.7772,0.7773,0.7732,0.773,0.7729,0,0,0,0,0,0.7138,0.7166,0.7182,0.72,0.7301,0.7363,0.7377,0.7424,0.7429,0.7445,0.7491,0.7518,0.7635,0.7626,0.7643,0.7655,0.7771,0.7772,0.7773,0.7733,0.7731,0.7729,0,0,0,0,0,0,0.7092,0.7177,0.7196,0.7249,0.7298,0.7373,0.7395,0.742,0.747,0.7472,0.7528,0.7545,0.7593,0.763,0.7618,0.7695,0.7705,0.7709,0.767,0.7668,0.7666,0.7657,0.7653,0,0,0,0,0,0.7087,0.713,0.7202,0.7242,0.7266,0.7325,0.7354,0.7386,0.744,0.7461,0.7511,0.7562,0.761,0.7641,0.769,0.7737,0.7754,0.7754,0.7752,0.775,0.7753,0.7779,0.7779,0.7775,0.7775,0.7775,0,0,0.7079,0.7131,0.7155,0.7234,0.7276,0.7319,0.7343,0.7388,0.742,0.7468,0.7522,0.7559,0.762,0.767,0.7695,0.7702,0.7757,0.7751,0.7749,0.7753,0.7779,0.778,0.778,0.7776,0.7776,0.7776,0,0,0.7086,0.713,0.7167,0.7208,0.727,0.7309,0.7318,0.7388,0.7415,0.7469,0.7505,0.7544,0.7626,0.7667,0.7699,0.7717,0.7743,0.7731,0.7722,0.7747,0.7747,0.7748,0.7753,0.7754,0.7734,0.7734,0.7734,0,0.7069,0.7135,0.7183,0.7225,0.7258,0.7301,0.7338,0.7376,0.7451,0.7473,0.7479,0.7581,0.7626,0.7685,0.7689,0.7713,0.7724,0.7724,0.7743,0.7744,0.7745,0.7751,0.7753,0.7732,0.7732,0.7732,0.7733,0,0.7109,0.7154,0.7176,0.7246,0.7281,0.7321,0.7374,0.7404,0.7431,0.7469,0.7522,0.7576,0.7635,0.7651,0.768,0.7714,0.7716,0.7732,0.7744,0.7743,0.7749,0.7752,0.7729,0.773,0.7731,0.7731,0,0,0.7093,0.7186,0.7194,0.7225,0.7295,0.7331,0.7371,0.7428,0.7451,0.7501,0.7536,0.7602,0.7616,0.7652,0.7685,0.7706,0.7715,0.772,0.7722,0.7716,0.7755,0.7742,0.7744,0.7732,0.7733,0.7734,0.7749,0,0.7109,0.7183,0.7226,0.7282,0.7323,0.7364,0.7399,0.7445,0.7481,0.7521,0.756,0.7606,0.7622,0.7643,0.7666,0.7709,0.7724,0.7709,0.7765,0.7766,0.7748,0.7748,0.7735,0.7747,0.7752,0.7752,0.7753,0,0.7139,0.7186,0.7246,0.7309,0.7328,0.7358,0.7412,0.745,0.7502,0.7527,0.7564,0.7597,0.764,0.7647,0.7706,0.7695,0.772,0.7744,0.7745,0.7753,0.776,0.7754,0.7753,0.7754,0.7757,0.7757,0.7757,0,0.712,0.7198,0.7243,0.7269,0.7344,0.7364,0.7397,0.7449,0.7479,0.7526,0.7546,0.7597,0.7625,0.7664,0.7708,0.771,0.7763,0.7774,0.7784,0.7782,0.7794,0.7793,0.7796,0.781,0.781,0.781,0.781,0,0.7134,0.7169,0.7235,0.7263,0.7303,0.7351,0.7388,0.7424,0.747,0.7504,0.7542,0.7574,0.7631,0.767,0.7705,0.7747,0.776,0.778,0.7789,0.7777,0.7774,0.7795,0.7795,0.781,0.781,0.781,0.781,0,0.712,0.7166,0.7218,0.7284,0.7301,0.7327,0.7383,0.7411,0.7447,0.7491,0.7504,0.7561,0.7608,0.7656,0.772,0.7743,0.7785,0.7797,0.7767,0.7772,0.7778,0.7776,0.7795,0.7799,0.781,0.7809,0.7809,0,0.7126,0.7153,0.7221,0.7247,0.7278,0.7319,0.7349,0.7396,0.7426,0.7486,0.7507,0.7556,0.7598,0.7671,0.7718,0.7767,0.778,0.7783,0.7788,0.7774,0.7779,0.7777,0.7779,0.7781,0.7781,0.7781,0.7781,0,0.7131,0.7152,0.7194,0.7243,0.7278,0.7319,0.7362,0.738,0.7436,0.7467,0.7515,0.7547,0.7611,0.7659,0.7712,0.7745,0.7772,0.7778,0.7783,0.7771,0.7752,0.7761,0.7761,0.7778,0.7778,0.7778,0.7779,0.7779,0.7128,0.7153,0.7204,0.7248,0.7285,0.7323,0.7352,0.739,0.7431,0.7486,0.7511,0.7558,0.7608,0.7682,0.7714,0.7751,0.7759,0.7766,0.7767,0.7768,0.7765,0.7745,0.7761,0.7761,0.7761,0.7761,0.7761,0,0.7134,0.7168,0.7209,0.7266,0.73,0.7321,0.7368,0.7396,0.7437,0.748,0.752,0.7573,0.7619,0.7669,0.7717,0.7737,0.775,0.7748,0.7748,0.7754,0.7756,0.7747,0.7737,0.7737,0.7737,0.7737,0.7737,0.7737,0.7142,0.7185,0.7211,0.7271,0.7305,0.7351,0.7376,0.7411,0.7446,0.7503,0.7541,0.7573,0.7618,0.767,0.7712,0.7725,0.7741,0.7735,0.7752,0.7753,0.7755,0.7756,0.7748,0.7739,0.7739,0.7748,0.7748,0.7748]},{"header":{"parameterUnit":"m.s-1","parameterCategory":1,"la1":30.2991,"la2":30.254,"lo1":-89.0895,"lo2":-89.0444,"dy":0.0017,"dx":0.0017,"nx":28,"ny":28,"refTime":"2026-02-13T03:00:00:Z","depth":0,"parameterNumber":3,"parameterNumberName":"V-component_of_WINDS"},"data":[0,0,0,0,0,0,0,0,0,0,0,0,0,0,0,0,0,0,0,0,0,0,0,0,0,0,0,0,0,0,0,0,0,0,0,0,0,0,0,0,0,0,0,0,0,0,0,0,0,0,0,0,0,0,0,0,0,0,1.5404,1.5404,0,1.5388,1.5388,1.5388,1.5443,1.5445,1.5446,1.5448,1.5425,1.5423,1.5421,0,0,0,0,0,0,0,0,0,0,0,0,0,1.5477,1.5475,1.5404,1.5404,1.5404,1.5388,1.5388,1.5388,1.5443,1.5445,1.5447,1.5449,1.5426,1.5423,1.5421,0,0,0,0,0,0,0,0,0,0,0,0,0,1.5451,1.5475,1.5404,1.543,1.5432,1.5388,1.5388,1.5388,1.5442,1.5445,1.5447,1.5449,1.5427,1.5424,1.542,1.535,0,0,1.541,1.5409,0,0,0,0,0,0,0,0,1.5453,1.5449,1.5426,1.5428,1.543,1.542,1.5405,1.5375,1.5441,1.5438,1.5448,1.5451,1.5421,1.5418,1.541,1.5349,1.5348,1.541,1.5408,1.5407,1.5406,0,0,0,0,0,0,0,1.5454,1.5449,1.5398,1.5426,1.5428,1.544,1.5439,1.54,1.5415,1.5438,1.5442,1.544,1.5423,1.5413,1.541,1.5348,1.541,1.5407,1.5405,1.5404,1.5227,1.5225,0,0,0,0,0,0,1.5454,1.5451,1.5398,1.5397,1.5448,1.5436,1.5436,1.5421,1.5416,1.5418,1.5438,1.5443,1.5417,1.5413,1.5409,1.5325,1.5407,1.5404,1.5402,1.523,1.5227,1.5224,0,0,0,0,0,0,1.5455,1.5448,1.5399,1.5425,1.542,1.5433,1.5415,1.5419,1.5409,1.5416,1.5418,1.5425,1.5419,1.5414,1.5365,1.5325,1.5402,1.5399,1.5233,1.5229,1.5225,1.5157,0,0,0,0,0,0,1.5457,1.5449,1.5423,1.5424,1.5418,1.5356,1.5413,1.5417,1.5404,1.541,1.5405,1.5406,1.542,1.5369,1.5361,1.5322,1.5397,1.5237,1.5231,1.5226,1.5163,1.5152,1.5142,0,0,0,0,0,1.5459,1.5404,1.5422,1.5415,1.5387,1.5354,1.535,1.537,1.5401,1.5375,1.5379,1.5406,1.5331,1.5364,1.5355,1.5314,1.5239,1.5233,1.5227,1.5168,1.5154,1.5142,0,0,0,0,0,0,1.5396,1.5404,1.5424,1.5368,1.536,1.5363,1.5331,1.5354,1.5335,1.5342,1.5365,1.5363,1.5309,1.5307,1.5343,1.5246,1.529,1.5282,1.5248,1.5235,1.5224,1.5225,1.5394,0,0,0,0,0,1.5376,1.535,1.5358,1.5308,1.5303,1.5317,1.5304,1.532,1.5311,1.5308,1.5308,1.5297,1.5271,1.5254,1.523,1.5164,1.5162,1.5132,1.5121,1.5112,1.5104,1.5067,1.5053,1.5203,1.5203,1.5203,0,0,1.5333,1.5335,1.5316,1.5295,1.5291,1.5261,1.5314,1.5281,1.5259,1.5302,1.5256,1.5256,1.5245,1.5187,1.5161,1.5184,1.5062,1.5104,1.5097,1.5094,1.5059,1.5045,1.5032,1.5199,1.52,1.52,0,0,1.524,1.524,1.5197,1.5192,1.5185,1.5196,1.5185,1.5185,1.5187,1.5142,1.5173,1.5146,1.5102,1.5093,1.5082,1.4986,1.5009,1.4978,1.492,1.4883,1.4872,1.4861,1.4825,1.4811,1.497,1.497,1.497,0,1.5187,1.5146,1.5171,1.5136,1.5125,1.5165,1.5121,1.5114,1.5099,1.5089,1.5116,1.506,1.5056,1.4995,1.4972,1.4963,1.495,1.4977,1.4872,1.4861,1.4852,1.4817,1.4804,1.4966,1.4966,1.4967,1.4967,0,1.508,1.5051,1.5017,1.5003,1.4989,1.4949,1.4966,1.4948,1.4965,1.4972,1.4924,1.4921,1.4897,1.4885,1.4901,1.4825,1.4839,1.4868,1.4913,1.4833,1.4801,1.4788,1.496,1.4961,1.4963,1.4964,0,0,1.4944,1.4947,1.4933,1.4927,1.4923,1.49,1.4862,1.4841,1.4823,1.4812,1.4778,1.474,1.4767,1.4755,1.477,1.4739,1.466,1.4772,1.4772,1.4749,1.4575,1.4551,1.4536,1.4677,1.4675,1.4673,1.4575,0,1.4851,1.4787,1.4809,1.4743,1.4715,1.4753,1.4719,1.4712,1.4718,1.4693,1.4699,1.4671,1.4709,1.4702,1.4673,1.4676,1.4625,1.4684,1.4643,1.4642,1.4642,1.4519,1.4494,1.4402,1.4563,1.4561,1.4559,0,1.4733,1.4719,1.465,1.4651,1.464,1.4609,1.4591,1.4568,1.456,1.4566,1.4553,1.4576,1.4536,1.4583,1.4527,1.4566,1.4551,1.455,1.4547,1.4542,1.4594,1.4508,1.4373,1.4358,1.454,1.4542,1.4543,0,1.4638,1.4602,1.4556,1.455,1.455,1.4527,1.4525,1.4521,1.4506,1.449,1.448,1.4459,1.4446,1.4428,1.4443,1.4476,1.4383,1.4432,1.4385,1.4384,1.4361,1.4362,1.4219,1.4356,1.4356,1.4356,1.4356,0,1.453,1.4486,1.4513,1.4484,1.4436,1.4461,1.4411,1.4414,1.4409,1.438,1.4412,1.4384,1.4407,1.438,1.4391,1.4342,1.4336,1.4338,1.4341,1.4334,1.4333,1.4322,1.4328,1.4353,1.4353,1.4354,1.4355,0,1.4414,1.4431,1.4383,1.4388,1.4388,1.4352,1.4355,1.4327,1.4336,1.4299,1.4291,1.4303,1.4273,1.4288,1.4256,1.4263,1.4199,1.4212,1.4202,1.4204,1.4155,1.4158,1.3998,1.3977,1.413,1.4128,1.4127,0,1.4343,1.431,1.4312,1.4296,1.4293,1.4266,1.4252,1.4276,1.4259,1.4248,1.4221,1.4195,1.4174,1.4124,1.4128,1.4104,1.4115,1.406,1.4111,1.4104,1.4111,1.4112,1.4107,1.4049,1.4047,1.4046,1.4045,0,1.4214,1.4224,1.4204,1.4185,1.4168,1.4155,1.4144,1.4128,1.4151,1.4131,1.4102,1.4086,1.4054,1.4026,1.4005,1.4001,1.4025,1.4029,1.4017,1.4007,1.4002,1.4002,1.4171,1.4032,1.4033,1.4034,1.4035,1.4036,1.4117,1.4089,1.4086,1.4061,1.4056,1.4045,1.4019,1.4025,1.4002,1.3979,1.3995,1.3959,1.3951,1.3926,1.3919,1.389,1.3911,1.3893,1.3888,1.3883,1.3875,1.4009,1.3886,1.3887,1.3887,1.3888,1.3888,0,1.3987,1.3987,1.3965,1.3949,1.393,1.3958,1.3947,1.3928,1.3897,1.3889,1.3869,1.3835,1.3808,1.3811,1.3786,1.3762,1.3773,1.3755,1.3755,1.3753,1.3859,1.3871,1.3747,1.3747,1.3747,1.3747,1.3747,1.3747,1.3917,1.3871,1.3881,1.3832,1.3832,1.38,1.3791,1.378,1.3774,1.3734,1.3713,1.3716,1.3712,1.3687,1.3663,1.3664,1.3652,1.3629,1.3635,1.3732,1.3746,1.3759,1.3771,1.3627,1.3627,1.3531,1.353,1.353]}]]